METAR AND TAF INFORMATION

METAR FOR SVBI
ADDS - METARS form results

(1455 UTC 21 May 2022)
Data provider http://aviationweather.gov/metar/data/
 
METAR text: SVBI 211403Z AUTO 04005KT NCD 27/23 Q1021
Conditions at: SVBI (BARINAS , VE) observed 1403 UTC 21 May 2022
Temperature: 27.0°C (81°F)
Dewpoint: 23.0°C (73°F) [RH = 79%]
Pressure (altimeter): 30.15 inches Hg (1021.0 mb)
Winds: from the NE (40 degrees) at 6 MPH (5 knots; 2.6 m/s)
Visibility: missing
Ceiling: at least 12,000 feet AGL
Clouds: sky clear below 12,000 feet AGL
Weather: no significant weather observed at this time

 

AIRPORT MAP

 

RUNWAY INFORMATION

Runway 03 Runway length 3940 ft Runway width 130 ft
Runway elevation 619 ft Runway displaced threshold 0 ft Runway heading 33
Runway 21 Runway length 3940 ft Runway width 130 ft
Runway elevation 619 ft Runway displaced threshold 1480 ft Runway heading 213
Runway 13 Runway length 6560 ft Runway width 135 ft
Runway elevation 619 ft Runway displaced threshold 985 ft Runway heading 123
Runway 31 Runway length 6560 ft Runway width 135 ft
Runway elevation 602 ft Runway displaced threshold 0 ft Runway heading 303

 

AIRPORT FREQUENCIES

Type GND Name GND Frequency 121.9 MHZ
Type TWR Name TWR Frequency 118 MHZ

 

AIRPORT NEAR NAVIGATION AIDS

Type VOR-DME Name Barinas Frequency 117500 KHZ
Type NDB Name Barinas Frequency 220 KHZ